This demonstration page uses our WeatherBlox Daily Observations layout. Learn more.

Left ArrowRight Arrow

39.51506, -84.39828

Hourly Observations for March 24, 2021

Temp ( °F °C ) Dew Point ( °F °C ) Humidity (%) Winds ( mph kmh ) Pressure ( in mb ) Visibility ( mi km ) Precip ( " mm )
12:15 am 00:15 Cloudy 64 17.8 42 5.5 45 45 SSE 8 13 29.85 1011 10 16 N/A
12:35 am 00:35 Cloudy 64 18 41 5.2 43 43 S 9 15 29.85 1011 10 16 N/A
12:55 am 00:55 Cloudy 64 17.6 42 5.3 45 45 SSE 9 15 29.85 1011 10 16 N/A
1:15 am 01:15 Cloudy 64 17.7 42 5.6 45 45 SSE 8 13 29.85 1011 10 16 N/A
1:35 am 01:35 Cloudy 64 17.7 43 6 46 46 S 10 17 29.85 1011 10 16 N/A
1:55 am 01:55 Cloudy 64 17.6 44 6.7 49 49 S 9 15 29.85 1011 10 16 N/A
2:15 am 02:15 Cloudy with Light Rain 62 16.9 49 9.5 62 62 S 21 33 29.86 1011 10 16 N/A
2:35 am 02:35 Cloudy with Light Rain 61 15.9 51 10.7 71 71 S 16 26 29.86 1011 10 16 N/A
2:55 am 02:55 Cloudy 60 15.5 53 11.6 78 78 S 13 20 29.87 1011 10 16 N/A
3:15 am 03:15 Cloudy 60 15.3 53 11.7 79 79 SSE 8 13 29.87 1011 10 16 N/A
3:35 am 03:35 Cloudy with Light Rain 60 15.5 53 11.4 77 77 S 12 19 29.87 1011 10 16 N/A
3:55 am 03:55 Cloudy 60 15.6 52 10.9 74 74 S 10 17 29.87 1011 10 16 N/A
4:15 am 04:15 Cloudy 60 15.8 51 10.5 71 71 S 12 19 29.85 1011 10 16 N/A
4:35 am 04:35 Cloudy 61 16.2 50 10.2 68 68 SSW 16 26 29.86 1011 10 16 N/A
4:55 am 04:55 Cloudy 61 16 50 10.2 69 69 SSW 13 20 29.86 1011 10 16 N/A
5:15 am 05:15 Cloudy 61 15.9 50 10.1 69 69 SSW 10 17 29.86 1011 10 16 N/A
5:35 am 05:35 Cloudy 60 15.6 50 10.1 70 70 S 12 19 29.87 1011 10 16 N/A
5:55 am 05:55 Partly Cloudy 60 15.3 50 10 71 71 S 8 13 29.86 1011 10 16 N/A
6:15 am 06:15 Partly Cloudy 60 15.5 50 10.1 70 70 S 9 15 29.86 1011 10 16 N/A
6:35 am 06:35 Partly Cloudy 60 15.5 51 10.3 71 71 S 12 19 29.86 1011 10 16 N/A
6:55 am 06:55 Cloudy with Light Rain 60 15.4 52 11.2 76 76 S 13 20 29.86 1011 10 16 N/A
7:15 am 07:15 Clear 58 14.7 53 11.6 82 82 S 13 20 29.87 1011 10 16 N/A
7:35 am 07:35 Mostly Cloudy 58 14.3 53 11.8 85 85 S 8 13 29.87 1011 10 16 N/A
7:55 am 07:55 Cloudy 59 15 54 12 82 82 S 7 11 29.87 1011 10 16 N/A
8:15 am 08:15 Cloudy 60 15.3 53 11.4 78 78 S 10 17 29.87 1011 10 16 N/A
8:35 am 08:35 Cloudy 60 15.5 52 11 75 75 S 10 17 29.87 1011 10 16 N/A
8:55 am 08:55 Cloudy 60 15.7 52 11 74 74 S 12 19 29.86 1011 10 16 N/A
9:15 am 09:15 Cloudy 60 15.8 51 10.6 71 71 S 12 19 29.86 1011 10 16 N/A
9:55 am 09:55 undefined 62 16.5 51 10.4 67 67 S 12 19 29.86 1011 N/A N/A
10:15 am 10:15 Cloudy 63 17.2 51 10.7 66 66 S 16 26 29.86 1011 10 16 N/A
10:35 am 10:35 Sunny 65 18.1 52 11 63 63 SSW 20 31 29.86 1011 10 16 N/A
10:55 am 10:55 Partly Cloudy 65 18.4 52 11.2 63 63 S 16 26 29.86 1011 10 16 N/A
11:15 am 11:15 Partly Cloudy 66 19 52 11.3 61 61 SSW 16 26 29.85 1011 10 16 N/A
11:35 am 11:35 Mostly Cloudy 68 19.9 53 11.9 60 60 SSW 20 31 29.84 1011 10 16 N/A
11:55 am 11:55 Cloudy 66 18.8 53 11.4 62 62 S 18 30 29.85 1011 10 16 N/A
12:15 pm 12:15 Cloudy 66 18.8 53 11.7 64 64 SSW 17 28 29.85 1011 10 16 N/A
12:35 pm 12:35 Cloudy 66 19 53 11.9 64 64 SSW 16 26 29.84 1010 10 16 N/A
12:55 pm 12:55 Mostly Cloudy 68 19.9 53 11.8 60 60 SSW 20 31 29.82 1010 10 16 N/A
1:15 pm 13:15 Mostly Cloudy 67 19.5 54 12.2 63 63 SW 18 30 29.83 1010 10 16 N/A
1:35 pm 13:35 Partly Cloudy 70 21 54 12.2 57 57 SW 20 31 29.82 1010 10 16 N/A
1:55 pm 13:55 Mostly Cloudy 70 21.1 54 12.1 57 57 SSW 22 35 29.81 1010 10 16 N/A
2:15 pm 14:15 Partly Cloudy 71 21.5 53 11.7 54 54 S 18 30 29.81 1010 10 16 N/A
2:35 pm 14:35 Partly Cloudy 72 22.2 51 10.8 49 49 SSW 23 37 29.80 1009 10 16 N/A
2:55 pm 14:55 Partly Cloudy 73 22.6 51 10.3 46 46 SSW 24 39 29.79 1009 10 16 N/A
3:15 pm 15:15 Sunny 72 22.4 51 10.5 47 47 SSW 18 30 29.79 1009 10 16 N/A
3:35 pm 15:35 Partly Cloudy 73 23 49 9.2 42 42 SW 23 37 29.78 1008 10 16 N/A
3:55 pm 15:55 Partly Cloudy 73 22.8 48 8.8 41 41 SW 22 35 29.78 1008 10 16 N/A
4:15 pm 16:15 Sunny 74 23.1 47 8.6 40 40 SW 22 35 29.78 1008 10 16 N/A
4:35 pm 16:35 Sunny 73 22.8 48 8.8 41 41 SSW 15 24 29.77 1008 10 16 N/A
4:55 pm 16:55 Sunny 74 23.2 47 8.6 39 39 SW 22 35 29.77 1008 10 16 N/A
5:15 pm 17:15 Partly Cloudy 74 23.1 47 8.2 39 39 SSW 20 31 29.77 1008 10 16 N/A
5:35 pm 17:35 Sunny 73 23 47 8.1 39 39 SW 21 33 29.78 1008 10 16 N/A
5:55 pm 17:55 Sunny 73 22.9 48 8.8 41 41 SW 17 28 29.78 1008 10 16 N/A
6:15 pm 18:15 Partly Cloudy 73 22.8 47 8.2 39 39 SSW 17 28 29.78 1008 10 16 N/A
6:35 pm 18:35 Sunny 73 22.6 45 7 37 37 SW 18 30 29.79 1009 10 16 N/A
6:55 pm 18:55 Sunny 72 22.1 44 6.8 37 37 SW 14 22 29.80 1009 10 16 N/A
7:15 pm 19:15 Sunny 71 21.4 44 6.8 39 39 WSW 12 19 29.81 1010 10 16 N/A
7:35 pm 19:35 Sunny 69 20.4 45 7.2 43 43 SW 9 15 29.81 1010 10 16 N/A
7:55 pm 19:55 Clear 68 19.9 45 7.4 45 45 SW 14 22 29.82 1010 10 16 N/A
8:15 pm 20:15 Clear 67 19.6 46 7.6 46 46 SW 12 19 29.84 1010 10 16 N/A
8:35 pm 20:35 Clear 66 18.9 46 7.8 49 49 SW 10 17 29.85 1011 10 16 N/A
8:55 pm 20:55 Clear 63 17.4 46 7.9 54 54 WSW 7 11 29.86 1011 10 16 N/A
9:15 pm 21:15 Partly Cloudy 63 17.3 46 7.9 54 54 SW 7 11 29.87 1012 10 16 N/A
9:35 pm 21:35 Clear 63 17.4 47 8.3 55 55 SW 5 7 29.88 1012 10 16 N/A
9:55 pm 21:55 Clear 62 16.8 46 8 56 56 SSW 5 7 29.89 1012 10 16 N/A
10:15 pm 22:15 Clear 56 13.1 47 8.3 73 73 SSW 3 6 29.91 1013 10 16 N/A
10:35 pm 22:35 Clear 56 13.2 47 8.6 74 74 SW 3 6 29.91 1013 10 16 N/A
10:55 pm 22:55 Clear 54 12.4 48 9.1 80 80 N N/A 29.92 1013 10 16 N/A
11:15 pm 23:15 Clear 53 11.7 48 8.9 83 83 N N/A 29.92 1013 10 16 N/A
11:35 pm 23:35 Clear 52 11.1 49 9.7 91 91 N N/A 29.93 1013 10 16 N/A
11:55 pm 23:55 Clear 51 10.7 49 9.3 91 91 N N/A 29.93 1013 10 16 N/A

Powered by AerisWeather